[[{"header":{"parameterUnit":"m.s-1","parameterCategory":1,"la1":30.2991,"la2":30.254,"lo1":-89.0895,"lo2":-89.0444,"dy":0.0017,"dx":0.0017,"nx":28,"ny":28,"refTime":"2024-03-14T03:00:00:Z","depth":0,"parameterNumber":2,"parameterNumberName":"U-component_of_WINDS"},"data":[0,0,0,0,0,0,0,0,0,0,0,0,0,0,0,0,0,0,0,0,0,0,0,0,0,0,0,0,0,0,0,0,0,0,0,0,0,0,0,0,0,0,0,0,0,0,0,0,0,0,0,0,0,0,0,0,0,0,-2.7189,-2.719,0,-2.7218,-2.7218,-2.7218,-2.7175,-2.7174,-2.7172,-2.7171,-2.72,-2.7203,-2.7205,0,0,0,0,0,0,0,0,0,0,0,0,0,-2.7099,-2.7101,-2.7189,-2.719,-2.719,-2.7217,-2.7218,-2.7218,-2.7176,-2.7174,-2.7172,-2.717,-2.72,-2.7202,-2.7205,0,0,0,0,0,0,0,0,0,0,0,0,0,-2.7134,-2.7102,-2.7189,-2.7172,-2.7171,-2.7217,-2.7218,-2.7218,-2.7176,-2.7174,-2.7172,-2.717,-2.7199,-2.7202,-2.7205,-2.727,0,0,-2.7215,-2.7217,0,0,0,0,0,0,0,0,-2.7132,-2.7138,-2.7174,-2.7173,-2.7172,-2.7191,-2.7197,-2.7236,-2.7177,-2.7174,-2.7171,-2.7168,-2.7199,-2.7202,-2.7212,-2.7271,-2.7273,-2.7215,-2.7217,-2.7219,-2.722,0,0,0,0,0,0,0,-2.713,-2.7136,-2.72,-2.7175,-2.7173,-2.7163,-2.7166,-2.7204,-2.7199,-2.7174,-2.7171,-2.7175,-2.7198,-2.7209,-2.7213,-2.7273,-2.7215,-2.7218,-2.722,-2.7222,-2.7387,-2.739,0,0,0,0,0,0,-2.7129,-2.7134,-2.7199,-2.7201,-2.7146,-2.7167,-2.7169,-2.7187,-2.7198,-2.7198,-2.7177,-2.7173,-2.7205,-2.7209,-2.7214,-2.729,-2.7219,-2.7222,-2.7224,-2.7385,-2.7388,-2.739,0,0,0,0,0,0,-2.7128,-2.7136,-2.7198,-2.7167,-2.7174,-2.7171,-2.7191,-2.7189,-2.72,-2.72,-2.7199,-2.7189,-2.7203,-2.7209,-2.7256,-2.729,-2.7223,-2.7226,-2.7382,-2.7386,-2.7389,-2.7443,0,0,0,0,0,0,-2.7125,-2.7135,-2.7159,-2.7168,-2.7176,-2.724,-2.7193,-2.7191,-2.7206,-2.7201,-2.7212,-2.7211,-2.7202,-2.7252,-2.726,-2.7294,-2.7229,-2.7379,-2.7384,-2.7388,-2.7438,-2.7448,-2.7457,0,0,0,0,0,-2.7122,-2.7174,-2.7161,-2.7169,-2.7206,-2.7242,-2.7247,-2.7235,-2.7209,-2.7233,-2.7233,-2.7211,-2.7286,-2.7257,-2.7265,-2.7301,-2.7377,-2.7382,-2.7388,-2.7434,-2.7446,-2.7457,0,0,0,0,0,0,-2.7169,-2.7174,-2.716,-2.7216,-2.7229,-2.7235,-2.7265,-2.7248,-2.7269,-2.7264,-2.7248,-2.7251,-2.7302,-2.7306,-2.7274,-2.7365,-2.7327,-2.7334,-2.7359,-2.7371,-2.738,-2.7377,-2.7232,0,0,0,0,0,-2.7186,-2.7215,-2.7218,-2.7267,-2.7274,-2.7269,-2.7284,-2.7274,-2.7287,-2.7292,-2.7296,-2.731,-2.7336,-2.7354,-2.7379,-2.744,-2.7441,-2.7468,-2.7478,-2.7485,-2.7491,-2.7524,-2.7536,-2.7409,-2.7409,-2.7408,0,0,-2.7221,-2.7228,-2.7247,-2.7277,-2.7285,-2.7316,-2.7274,-2.7308,-2.733,-2.7298,-2.7342,-2.7346,-2.736,-2.7415,-2.7439,-2.742,-2.7527,-2.7492,-2.7498,-2.75,-2.7531,-2.7543,-2.7553,-2.7412,-2.7412,-2.7411,0,0,-2.73,-2.7308,-2.7349,-2.736,-2.7374,-2.737,-2.738,-2.739,-2.7391,-2.7435,-2.7412,-2.7439,-2.7485,-2.7496,-2.7508,-2.7593,-2.7573,-2.7601,-2.7649,-2.7681,-2.7691,-2.7699,-2.7729,-2.774,-2.7608,-2.7608,-2.7608,0,-2.7342,-2.7386,-2.7373,-2.7409,-2.7422,-2.7395,-2.7437,-2.7448,-2.7469,-2.748,-2.7459,-2.7516,-2.7524,-2.758,-2.7601,-2.7612,-2.7623,-2.7599,-2.769,-2.7699,-2.7707,-2.7735,-2.7746,-2.7611,-2.7611,-2.761,-2.761,0,-2.7436,-2.7468,-2.75,-2.7521,-2.7539,-2.7577,-2.7571,-2.759,-2.7579,-2.7578,-2.7624,-2.7633,-2.7659,-2.7672,-2.7661,-2.7727,-2.7715,-2.7693,-2.7654,-2.7722,-2.7749,-2.7759,-2.7616,-2.7615,-2.7614,-2.7613,0,0,-2.7544,-2.7558,-2.757,-2.758,-2.7594,-2.7618,-2.7657,-2.7682,-2.7699,-2.7715,-2.7746,-2.7787,-2.7766,-2.778,-2.777,-2.7799,-2.7865,-2.7772,-2.7772,-2.7788,-2.7938,-2.7954,-2.7966,-2.7853,-2.7855,-2.7856,-2.7936,0,-2.7622,-2.7686,-2.7676,-2.7739,-2.7768,-2.7743,-2.7776,-2.7789,-2.779,-2.7814,-2.7815,-2.7844,-2.7815,-2.7823,-2.785,-2.7851,-2.7894,-2.7845,-2.7881,-2.7882,-2.7876,-2.798,-2.7997,-2.8072,-2.7946,-2.7948,-2.7949,0,-2.7721,-2.7741,-2.7806,-2.7817,-2.7828,-2.7858,-2.7881,-2.7905,-2.7919,-2.7918,-2.7934,-2.7919,-2.7958,-2.792,-2.7973,-2.794,-2.7954,-2.7957,-2.796,-2.7961,-2.7919,-2.7983,-2.8095,-2.8106,-2.7965,-2.7964,-2.7963,0,-2.7791,-2.7835,-2.788,-2.7889,-2.7902,-2.7924,-2.7931,-2.7943,-2.7959,-2.7979,-2.7989,-2.8014,-2.8027,-2.8047,-2.804,-2.8013,-2.8094,-2.8056,-2.8093,-2.8094,-2.811,-2.8109,-2.8225,-2.8122,-2.8122,-2.8122,-2.8121,0,-2.7878,-2.7919,-2.7911,-2.7939,-2.7984,-2.7973,-2.8018,-2.8022,-2.8034,-2.8062,-2.8043,-2.8069,-2.8059,-2.8086,-2.8081,-2.8125,-2.8131,-2.8131,-2.8129,-2.8132,-2.8132,-2.814,-2.8134,-2.8124,-2.8124,-2.8123,-2.8123,0,-2.7964,-2.7961,-2.8008,-2.8017,-2.802,-2.8053,-2.8061,-2.8087,-2.8087,-2.8123,-2.8131,-2.813,-2.816,-2.8156,-2.819,-2.8186,-2.8241,-2.8233,-2.8236,-2.8234,-2.8271,-2.8267,-2.8395,-2.8411,-2.8299,-2.83,-2.8301,0,-2.8019,-2.805,-2.8063,-2.808,-2.8088,-2.8116,-2.8133,-2.8124,-2.8142,-2.8161,-2.8185,-2.8214,-2.8235,-2.8285,-2.8288,-2.8314,-2.8306,-2.8349,-2.8309,-2.8311,-2.8305,-2.8303,-2.8306,-2.8356,-2.8357,-2.8358,-2.8359,0,-2.8117,-2.8114,-2.8138,-2.8162,-2.8182,-2.8201,-2.8217,-2.8233,-2.8225,-2.8247,-2.8277,-2.8295,-2.8329,-2.8358,-2.8382,-2.839,-2.8373,-2.8372,-2.8382,-2.8384,-2.8384,-2.8384,-2.8256,-2.8369,-2.8368,-2.8367,-2.8366,-2.8366,-2.8188,-2.8214,-2.8227,-2.8255,-2.8267,-2.8283,-2.8308,-2.8311,-2.8336,-2.8363,-2.8357,-2.8392,-2.8406,-2.8438,-2.8448,-2.8475,-2.8459,-2.8474,-2.8477,-2.848,-2.8484,-2.8381,-2.848,-2.8479,-2.8479,-2.8479,-2.8479,0,-2.8284,-2.8291,-2.8317,-2.8341,-2.8363,-2.8347,-2.8365,-2.8384,-2.8415,-2.843,-2.8452,-2.8488,-2.8515,-2.8521,-2.8548,-2.8569,-2.8562,-2.8576,-2.8573,-2.8575,-2.8497,-2.8486,-2.8581,-2.8581,-2.8581,-2.8581,-2.8581,-2.8581,-2.8336,-2.8379,-2.8378,-2.8428,-2.8435,-2.8468,-2.848,-2.8495,-2.8507,-2.8547,-2.857,-2.8574,-2.8586,-2.8613,-2.8638,-2.8639,-2.865,-2.8666,-2.8664,-2.8591,-2.8581,-2.8571,-2.856,-2.8669,-2.8669,-2.874,-2.874,-2.8741]},{"header":{"parameterUnit":"m.s-1","parameterCategory":1,"la1":30.2991,"la2":30.254,"lo1":-89.0895,"lo2":-89.0444,"dy":0.0017,"dx":0.0017,"nx":28,"ny":28,"refTime":"2024-03-14T03:00:00:Z","depth":0,"parameterNumber":3,"parameterNumberName":"V-component_of_WINDS"},"data":[0,0,0,0,0,0,0,0,0,0,0,0,0,0,0,0,0,0,0,0,0,0,0,0,0,0,0,0,0,0,0,0,0,0,0,0,0,0,0,0,0,0,0,0,0,0,0,0,0,0,0,0,0,0,0,0,0,0,1.9856,1.9856,0,1.9858,1.9858,1.9858,1.9835,1.9834,1.9833,1.9833,1.9834,1.9834,1.9835,0,0,0,0,0,0,0,0,0,0,0,0,0,1.9833,1.9834,1.9856,1.9856,1.9856,1.9858,1.9858,1.9858,1.9835,1.9834,1.9833,1.9832,1.9834,1.9834,1.9835,0,0,0,0,0,0,0,0,0,0,0,0,0,1.984,1.9834,1.9856,1.9845,1.9844,1.9858,1.9858,1.9858,1.9835,1.9834,1.9833,1.9832,1.9833,1.9834,1.9835,1.986,0,0,1.9838,1.9838,0,0,0,0,0,0,0,0,1.984,1.9841,1.9846,1.9846,1.9845,1.9845,1.985,1.9859,1.9835,1.9838,1.9833,1.9832,1.9838,1.9839,1.9841,1.986,1.986,1.9838,1.9839,1.9839,1.9839,0,0,0,0,0,0,0,1.9839,1.9841,1.9857,1.9847,1.9845,1.984,1.984,1.9852,1.9843,1.9838,1.9836,1.9837,1.9837,1.984,1.9841,1.986,1.9838,1.9839,1.9839,1.984,1.9901,1.9902,0,0,0,0,0,0,1.984,1.984,1.9857,1.9857,1.984,1.9841,1.9841,1.9846,1.9843,1.9842,1.9838,1.9836,1.9839,1.984,1.9841,1.9871,1.9839,1.984,1.984,1.99,1.9901,1.9903,0,0,0,0,0,0,1.984,1.9842,1.9857,1.9848,1.985,1.9842,1.9848,1.9846,1.9849,1.9843,1.9841,1.9842,1.9838,1.984,1.9856,1.9871,1.984,1.9841,1.9899,1.9901,1.9902,1.9931,0,0,0,0,0,0,1.9839,1.9842,1.9851,1.9849,1.985,1.9872,1.9849,1.9847,1.9851,1.9848,1.9847,1.9845,1.9838,1.9855,1.9857,1.9871,1.9842,1.9898,1.99,1.9902,1.9929,1.9933,1.9937,0,0,0,0,0,1.9839,1.9859,1.9852,1.9854,1.9861,1.9872,1.9873,1.9864,1.9852,1.9861,1.9858,1.9846,1.9869,1.9856,1.9859,1.9874,1.9897,1.9899,1.9901,1.9927,1.9932,1.9937,0,0,0,0,0,0,1.9862,1.9858,1.985,1.987,1.9872,1.9868,1.988,1.987,1.9875,1.9873,1.9861,1.9861,1.988,1.9878,1.9865,1.9899,1.9881,1.9884,1.9899,1.9904,1.9909,1.9909,1.9843,0,0,0,0,0,1.987,1.9879,1.9875,1.9893,1.9894,1.9887,1.9891,1.9884,1.9886,1.9886,1.9884,1.9886,1.9893,1.9899,1.9905,1.9928,1.9928,1.994,1.9944,1.9948,1.9951,1.9965,1.997,1.9911,1.9911,1.9911,0,0,1.9885,1.9884,1.9891,1.9897,1.9898,1.9908,1.9888,1.9899,1.9907,1.9888,1.9904,1.9902,1.9903,1.9923,1.9932,1.9923,1.9967,1.9951,1.9954,1.9955,1.9968,1.9973,1.9978,1.9912,1.9912,1.9912,0,0,1.992,1.9919,1.9935,1.9936,1.9938,1.9933,1.9937,1.9935,1.9934,1.995,1.9936,1.9945,1.9958,1.996,1.9963,2.0,1.9989,2.0002,2.0025,2.0039,2.0044,2.0048,2.0062,2.0067,2.0005,2.0005,2.0005,0,1.9939,1.9954,1.9944,1.9957,1.9961,1.9945,1.9961,1.9963,1.9966,1.997,1.9959,1.9977,1.9977,1.9998,2.0007,2.0009,2.0014,2.0003,2.0044,2.0048,2.0052,2.0065,2.0071,2.0007,2.0007,2.0007,2.0006,0,1.9978,1.9989,2.0001,2.0006,2.0011,2.0026,2.0019,2.0025,2.0018,2.0015,2.0032,2.0031,2.0038,2.0043,2.0035,2.0063,2.0058,2.0046,2.0027,2.0059,2.0072,2.0077,2.0009,2.0009,2.0008,2.0008,0,0,2.0026,2.0027,2.0032,2.0034,2.0036,2.0044,2.0058,2.0066,2.0072,2.0075,2.0088,2.01,2.009,2.0093,2.0086,2.0098,2.0129,2.0084,2.0084,2.0094,2.0162,2.0171,2.0177,2.0122,2.0123,2.0123,2.0162,0,2.0061,2.0085,2.0078,2.0103,2.0113,2.0099,2.0112,2.0114,2.0112,2.0121,2.0118,2.0127,2.0112,2.0114,2.0125,2.0123,2.0142,2.012,2.0134,2.0134,2.0135,2.0184,2.0194,2.023,2.0167,2.0167,2.0168,0,2.0104,2.011,2.0136,2.0137,2.0141,2.0153,2.016,2.0168,2.0171,2.0169,2.0174,2.0165,2.0179,2.0161,2.0181,2.0166,2.0172,2.0171,2.0173,2.0174,2.0154,2.0188,2.0241,2.0247,2.0175,2.0175,2.0174,0,2.0138,2.0153,2.0171,2.0173,2.0175,2.0184,2.0185,2.0187,2.0192,2.0198,2.0202,2.021,2.0214,2.0221,2.0214,2.0201,2.0237,2.0217,2.0236,2.0236,2.0244,2.0244,2.0301,2.0246,2.0246,2.0246,2.0246,0,2.0178,2.0195,2.0187,2.0198,2.0217,2.0208,2.0227,2.0227,2.0229,2.024,2.0228,2.0239,2.0229,2.024,2.0235,2.0254,2.0255,2.0254,2.0253,2.0256,2.0256,2.026,2.0258,2.0248,2.0247,2.0247,2.0247,0,2.0219,2.0215,2.0234,2.0234,2.0234,2.0249,2.0249,2.026,2.0257,2.0272,2.0274,2.027,2.0282,2.0276,2.0288,2.0284,2.0309,2.0304,2.0309,2.0308,2.0327,2.0326,2.0389,2.0397,2.0336,2.0337,2.0337,0,2.0245,2.0258,2.026,2.0268,2.027,2.0281,2.0287,2.0279,2.0286,2.0291,2.0302,2.0312,2.0321,2.034,2.0338,2.0347,2.0343,2.0364,2.0344,2.0347,2.0345,2.0345,2.0346,2.0369,2.0369,2.037,2.037,0,2.0293,2.029,2.0299,2.0308,2.0316,2.0323,2.0328,2.0335,2.0327,2.0336,2.0348,2.0354,2.0367,2.0378,2.0387,2.0388,2.0379,2.0377,2.0382,2.0385,2.0388,2.0388,2.0321,2.0375,2.0375,2.0374,2.0374,2.0374,2.0328,2.034,2.0344,2.0355,2.0358,2.0364,2.0375,2.0374,2.0384,2.0394,2.0389,2.0404,2.0408,2.0418,2.0421,2.0433,2.0424,2.0431,2.0433,2.0435,2.0438,2.0386,2.0434,2.0434,2.0433,2.0433,2.0433,0,2.0376,2.0378,2.0389,2.0397,2.0407,2.0397,2.0403,2.0411,2.0424,2.0429,2.0438,2.0453,2.0464,2.0463,2.0474,2.0483,2.0479,2.0486,2.0486,2.0487,2.0445,2.044,2.049,2.049,2.049,2.049,2.049,2.049,2.0402,2.0422,2.042,2.0442,2.0443,2.0458,2.0463,2.0468,2.0472,2.0489,2.0499,2.0499,2.0502,2.0512,2.0523,2.0522,2.0527,2.0536,2.0534,2.0495,2.049,2.0484,2.048,2.0537,2.0537,2.0576,2.0576,2.0577]}]]